Location: Ferintosh
(52.7647°N, 112.9692°W)
Time: 15:05:41
(UTC+00:00)

Transit 2A - Pass Details

Date: 24 May 2024
Orbit: 592 x 959 km, 66.7° (Epoch: 23 June)

Event Time Altitude Azimuth Distance (km) Brightness Sun altitude
Rises 15:40:15 0° 312° (NW) 3,431 8.9 36.2°
Reaches altitude 10° 15:43:21 10° 295° (WNW) 2,551 8.3 36.7°
Maximum altitude 15:47:21 19° 253° (WSW) 2,044 8.0 37.3°
Drops below altitude 10° 15:51:29 10° 211° (SSW) 2,653 8.8 37.9°
Sets 15:54:49 0° 194° (SSW) 3,618 9.5 38.4°
